Wind_Speed
7 6 5 5 5 5 5 5 5 4 4 4 4 4 3 3 4 4 4 4 3 3 3 3 3 3 2 1 1 2 2 2 2 3 3 2 2 3 3 3 4 4 3
7 6 5 5 5 5 5 5 4 4 3 3 3 3 2 2 2 3 4 4 3 3 3 3 3 2 2 2 1 1 2 2 2 3 2 2 2 3 3 3 3 3 3
7 6 5 5 5 4 4 3 3 3 2 2 2 2 1 1 2 2 2 2 2 3 2 2 2 2 1 2 1 1 1 2 2 2 2 2 2 3 3 3 3 3 3
7 7 6 5 5 4 3 2 2 2 2 2 2 1 1 1 2 2 2 2 2 2 1 1 1 1 1 1 2 1 1 1 1 1 2 2 3 3 3 3 3 3 3
7 7 7 6 5 5 4 2 1 2 1 1 2 1 1 2 2 1 1 1 1 2 1 2 1 1 1 1 1 1 0 0 1 1 2 2 3 3 3 3 3 3 3
8 7 7 6 6 5 5 3 2 2 2 2 2 1 2 2 2 1 1 1 2 2 2 2 1 2 2 1 1 1 1 0 1 1 2 2 2 2 3 3 3 3 3
8 8 8 7 6 6 6 5 4 4 3 3 2 2 2 2 2 2 1 2 2 3 3 2 2 2 2 1 1 1 1 1 1 1 0 1 2 2 3 3 3 2 2
8 8 8 7 7 7 6 6 5 3 3 3 2 2 1 1 1 2 2 3 3 3 3 2 3 2 2 2 2 2 1 1 1 1 1 1 1 2 3 3 3 2 2
8 7 7 7 7 7 6 5 4 3 2 2 1 1 1 1 1 1 1 2 3 3 3 2 3 2 2 2 2 2 2 2 2 1 1 2 1 2 3 3 3 2 2
8 7 7 6 6 6 6 5 3 2 1 1 1 1 2 1 1 1 2 2 2 3 2 2 3 2 2 2 2 2 2 2 2 3 2 3 3 2 2 3 3 2 2
8 7 6 5 5 5 5 5 3 2 1 1 1 1 1 2 2 1 2 2 2 2 2 2 2 2 2 3 3 3 2 2 3 3 3 3 3 3 3 3 3 3 3
8 7 6 6 5 5 4 4 4 4 3 1 1 1 2 2 2 2 2 2 2 2 2 2 2 3 3 3 3 3 3 2 2 3 2 3 3 3 3 3 3 4 4
7 7 7 6 6 6 5 4 4 4 4 3 2 2 2 2 2 1 1 1 1 1 2 2 3 3 3 3 3 3 2 2 3 3 2 3 3 3 3 3 4 5 5
8 7 6 6 6 6 5 5 5 5 4 3 3 3 2 2 2 2 2 2 2 2 2 2 3 3 3 3 3 3 3 3 3 4 3 2 3 4 4 4 4 5 6
8 7 6 6 6 6 6 5 5 5 4 3 3 3 3 3 2 2 3 2 3 3 3 3 3 3 3 4 4 4 4 5 5 5 4 4 4 4 5 5 5 5 6
8 7 7 6 5 5 5 5 4 4 4 4 4 4 3 3 3 3 3 2 2 3 4 4 3 3 3 4 4 5 6 6 6 6 6 6 5 5 5 5 6 6 6
9 9 8 7 6 5 4 4 4 4 5 5 5 4 4 3 3 3 2 3 2 3 3 4 3 3 3 4 5 6 6 5 5 5 5 5 5 6 6 7 7 7 7
10 10 8 7 6 5 4 5 4 5 5 5 5 4 4 3 3 3 3 3 3 3 2 3 3 4 4 5 6 6 6 6 6 6 6 6 6 7 7 8 8 8 8
9 9 9 8 7 5 5 4 4 5 5 5 4 4 3 3 3 3 2 3 3 3 3 3 4 5 6 6 6 6 6 6 6 6 6 6 7 8 9 9 10 10 10
9 9 9 8 7 6 5 5 5 5 4 4 4 4 4 3 2 3 2 3 3 3 3 3 4 5 7 7 6 6 6 5 6 6 6 7 8 9 10 10 11 11 11
8 9 9 8 7 6 5 5 6 5 5 5 4 4 3 3 3 3 3 3 3 3 3 4 4 5 6 6 6 6 6 6 6 6 7 8 8 9 10 10 10 11 11
8 9 9 8 7 6 6 5 5 5 5 4 4 4 3 4 4 4 4 3 4 4 4 4 5 6 6 6 6 6 6 7 7 7 7 8 9 10 11 11 11 11 12
8 9 9 8 6 6 5 5 4 4 4 4 4 3 3 4 4 4 4 4 4 4 5 5 6 7 7 7 7 7 7 7 7 8 8 9 10 10 11 12 12 12 13
8 8 8 7 7 6 5 5 5 4 4 4 4 3 3 4 5 5 5 5 5 5 6 6 7 7 8 8 8 8 8 8 8 9 10 10 11 11 11 12 12 12 12
8 8 8 7 7 6 6 5 5 4 4 4 4 4 4 4 5 5 5 5 6 6 7 8 8 8 9 9 9 8 9 9 10 10 11 11 12 12 12 12 12 12 13
8 8 8 8 7 7 7 6 5 5 5 5 5 4 5 5 5 5 5 5 6 7 7 8 8 9 9 9 9 9 9 10 11 11 12 12 13 13 12 13 13 13 13
Wind_Direction
75 76 81 88 85 88 90 98 104 106 109 113 111 116 117 116 112 98 89 88 89 82 74 75 93 90 79 90 126 158 165 164 177 180 169 161 151 148 147 149 156 156 161
75 77 75 82 87 85 91 102 111 114 114 108 112 118 123 124 113 95 86 80 78 74 73 74 76 79 64 68 80 147 168 185 188 180 169 163 151 138 150 150 158 160 165
66 67 68 69 83 84 95 108 110 108 106 106 111 117 114 134 126 104 81 70 63 59 59 65 67 78 71 70 60 105 171 186 182 184 177 172 166 155 148 151 166 171 173
66 67 67 66 70 78 82 93 106 119 124 124 135 150 141 129 136 110 85 55 35 22 16 17 28 45 47 60 50 69 140 190 186 195 190 196 180 168 160 162 174 190 185
67 69 70 72 71 74 68 68 104 148 147 129 121 118 121 114 119 99 78 25 357 359 4 359 19 350 352 33 31 41 69 187 228 235 219 212 197 185 180 183 194 208 203
69 70 70 76 76 71 60 61 96 118 125 120 126 101 95 102 100 79 30 8 3 13 12 1 12 351 336 342 331 353 351 277 264 252 238 219 209 205 209 203 196 207 216
71 68 71 73 70 64 60 65 94 102 103 99 100 99 93 93 80 68 42 13 10 11 13 360 353 350 358 346 332 333 336 307 286 271 230 191 191 193 202 201 199 199 206
71 69 71 70 67 62 62 67 80 82 85 83 76 73 75 75 72 61 38 17 11 5 9 1 353 340 336 330 333 325 310 245 282 265 219 175 164 191 209 206 207 214 213
68 69 69 68 65 61 59 66 69 65 71 75 59 27 6 18 41 28 4 3 1 1 5 3 356 351 330 323 332 329 314 258 280 251 226 199 221 234 217 208 214 222 214
59 61 59 56 56 58 54 55 62 66 64 50 22 348 329 302 306 322 335 340 349 357 0 4 7 343 321 327 326 317 300 250 249 250 243 228 239 247 220 219 226 236 236
57 53 52 46 48 50 51 50 48 42 26 358 335 334 321 316 292 293 318 328 336 347 355 350 347 345 335 329 321 316 312 270 238 248 261 249 247 247 237 230 234 242 251
53 48 46 39 42 50 50 46 40 29 23 17 20 14 339 323 297 281 308 322 330 336 341 346 351 351 337 326 319 302 303 286 238 259 272 265 258 252 248 238 238 247 259
47 41 43 36 42 48 43 41 37 32 34 35 28 9 337 311 302 308 342 326 320 320 323 334 343 336 341 335 327 313 309 286 272 283 279 264 260 262 261 258 261 265 266
38 36 38 34 38 39 35 36 33 33 30 27 21 12 348 322 326 324 356 7 355 341 322 318 332 333 334 331 320 315 312 299 286 284 279 268 264 266 262 263 266 271 270
33 30 31 32 25 23 21 22 19 18 20 18 16 5 358 1 1 343 344 326 338 335 324 315 309 318 312 310 308 307 304 295 289 285 285 278 270 265 261 260 265 271 270
29 26 22 24 20 14 14 10 8 11 17 9 359 357 2 6 359 351 339 345 352 339 320 311 304 318 316 318 319 312 306 300 289 282 273 271 271 267 266 269 272 273 271
25 23 18 21 20 15 9 4 2 12 4 359 350 347 351 357 356 349 334 340 341 336 343 346 342 341 334 327 325 320 316 313 296 292 277 271 273 271 272 279 279 275 268
22 20 18 13 7 4 359 353 0 352 348 349 341 343 351 349 347 342 338 342 338 323 325 332 334 333 329 319 316 316 315 312 307 300 290 281 281 280 280 283 279 277 270
15 13 12 9 2 353 344 347 351 351 347 345 336 332 335 344 348 341 336 334 328 320 313 311 319 324 319 316 318 319 317 310 305 302 299 291 286 284 283 282 281 279 272
9 7 7 4 3 356 339 334 343 343 343 336 331 328 326 328 330 331 317 327 333 333 324 319 323 326 322 318 321 318 314 307 305 303 301 299 297 291 288 284 282 279 273
4 1 0 359 355 356 349 338 337 332 329 325 324 321 324 323 319 325 316 326 336 338 334 333 330 329 325 322 319 316 312 305 300 303 302 298 296 292 288 285 284 282 282
358 354 353 352 347 346 345 343 345 339 335 326 323 310 309 307 307 321 328 331 324 327 323 323 325 325 322 319 315 309 307 303 300 299 296 295 293 291 288 286 280 279 281
352 347 349 347 338 335 337 342 344 333 329 329 317 302 296 302 303 303 315 315 312 314 314 324 330 324 317 311 309 306 299 296 296 297 296 296 294 293 290 291 287 283 279
347 343 340 341 340 340 338 335 335 329 323 320 314 301 286 297 298 293 300 297 303 309 314 319 321 320 317 314 309 306 303 299 298 296 297 296 295 295 293 295 292 289 283
338 334 330 330 330 330 334 335 332 331 329 323 313 304 297 300 294 291 289 287 299 304 306 308 309 311 313 313 311 305 305 303 301 298 298 296 296 296 294 294 292 292 290
332 328 327 327 322 324 321 319 321 323 316 313 301 292 288 285 285 287 288 287 296 298 299 300 303 307 312 314 315 309 306 305 301 298 297 295 295 294 294 294 293 292 292
Height
5896 5896 5896 5896 5896 5896 5896 5897 5898 5898 5899 5899 5900 5900 5900 5901 5901 5901 5901 5901 5901 5901 5901 5900 5900 5900 5899 5899 5898 5898 5898 5898 5898 5898 5898 5898 5898 5898 5898 5898 5899 5899 5899
5897 5897 5897 5897 5897 5897 5897 5898 5898 5899 5899 5900 5900 5901 5901 5901 5902 5902 5902 5902 5901 5901 5901 5901 5900 5900 5899 5899 5898 5898 5898 5898 5898 5898 5898 5898 5898 5898 5898 5898 5899 5899 5900
5898 5897 5898 5897 5897 5898 5898 5898 5899 5899 5900 5900 5901 5902 5902 5902 5902 5902 5902 5902 5902 5902 5902 5901 5900 5900 5900 5899 5899 5898 5898 5898 5898 5898 5898 5899 5899 5898 5898 5899 5899 5899 5899
5898 5898 5898 5898 5898 5898 5898 5898 5899 5899 5900 5901 5902 5902 5902 5902 5903 5903 5903 5903 5902 5902 5902 5901 5901 5900 5900 5899 5899 5899 5898 5898 5898 5898 5898 5898 5898 5898 5898 5899 5899 5899 5899
5899 5899 5899 5899 5898 5898 5898 5897 5898 5899 5900 5901 5902 5902 5902 5903 5903 5903 5903 5903 5903 5902 5902 5901 5900 5900 5899 5899 5899 5899 5898 5898 5898 5898 5898 5898 5898 5898 5898 5898 5899 5899 5899
5900 5900 5900 5900 5899 5898 5897 5895 5895 5898 5900 5900 5902 5902 5903 5903 5903 5903 5903 5903 5903 5902 5901 5901 5901 5900 5899 5899 5899 5898 5898 5898 5898 5898 5898 5898 5898 5898 5898 5898 5899 5899 5898
5901 5901 5901 5901 5900 5899 5897 5894 5894 5897 5900 5901 5902 5902 5903 5903 5903 5903 5903 5903 5903 5902 5902 5901 5901 5900 5899 5899 5898 5898 5898 5898 5898 5898 5897 5897 5898 5898 5898 5898 5898 5898 5898
5903 5903 5903 5902 5901 5900 5899 5897 5897 5899 5900 5901 5902 5902 5903 5903 5903 5903 5903 5903 5903 5902 5902 5901 5901 5900 5900 5899 5898 5898 5898 5898 5898 5897 5897 5897 5897 5898 5898 5898 5898 5898 5898
5905 5904 5904 5903 5903 5902 5901 5900 5900 5900 5901 5902 5902 5902 5903 5903 5903 5903 5903 5902 5902 5902 5902 5901 5901 5900 5899 5899 5898 5898 5897 5897 5897 5897 5897 5897 5897 5897 5897 5897 5897 5897 5897
5905 5905 5905 5904 5904 5903 5903 5902 5902 5902 5902 5902 5902 5902 5902 5902 5902 5903 5902 5902 5902 5901 5901 5901 5901 5900 5899 5898 5898 5897 5897 5897 5897 5897 5897 5896 5897 5897 5897 5897 5897 5897 5896
5906 5906 5906 5905 5905 5904 5903 5903 5903 5902 5902 5902 5902 5902 5902 5902 5902 5902 5902 5902 5901 5901 5901 5901 5900 5899 5898 5898 5897 5897 5896 5896 5896 5897 5896 5896 5896 5896 5896 5896 5896 5896 5895
5908 5907 5907 5906 5905 5905 5904 5904 5903 5903 5902 5902 5901 5901 5901 5901 5901 5901 5901 5901 5901 5900 5900 5900 5900 5899 5898 5898 5897 5896 5896 5895 5896 5896 5895 5895 5895 5895 5895 5895 5895 5895 5894
5909 5908 5908 5907 5906 5905 5905 5904 5904 5903 5903 5902 5901 5901 5901 5900 5901 5901 5901 5900 5900 5900 5900 5899 5899 5898 5898 5897 5897 5896 5895 5895 5895 5894 5894 5894 5894 5894 5894 5894 5894 5894 5893
5910 5909 5908 5907 5906 5905 5905 5904 5904 5903 5903 5902 5902 5901 5900 5900 5900 5899 5900 5900 5900 5900 5899 5899 5898 5898 5898 5897 5896 5896 5895 5894 5894 5894 5893 5893 5893 5893 5892 5892 5892 5892 5892
5910 5909 5908 5907 5906 5905 5905 5904 5904 5903 5903 5902 5901 5901 5900 5899 5899 5899 5899 5900 5899 5899 5899 5898 5898 5897 5897 5896 5895 5895 5894 5893 5893 5892 5892 5892 5891 5891 5891 5890 5890 5890 5890
5910 5909 5907 5907 5906 5906 5905 5904 5903 5903 5902 5902 5901 5900 5899 5899 5899 5899 5899 5899 5899 5898 5898 5897 5897 5897 5896 5895 5895 5894 5893 5891 5891 5890 5890 5890 5889 5889 5889 5889 5889 5888 5888
5910 5909 5908 5907 5906 5905 5905 5904 5903 5903 5902 5901 5900 5900 5899 5899 5899 5898 5898 5898 5897 5897 5897 5897 5896 5895 5895 5894 5893 5892 5891 5890 5889 5888 5888 5888 5887 5887 5887 5887 5886 5886 5886
5910 5909 5908 5907 5906 5905 5904 5904 5903 5902 5901 5901 5900 5899 5899 5898 5898 5898 5897 5897 5896 5896 5896 5896 5895 5895 5894 5893 5892 5890 5889 5888 5887 5887 5886 5885 5885 5885 5885 5884 5884 5883 5883
5911 5909 5908 5907 5905 5905 5904 5903 5902 5901 5901 5900 5899 5898 5898 5898 5897 5897 5896 5896 5895 5895 5895 5894 5894 5893 5893 5891 5890 5889 5887 5886 5885 5885 5884 5883 5883 5883 5882 5882 5881 5881 5880
5911 5910 5908 5906 5905 5904 5903 5902 5902 5901 5900 5899 5898 5897 5897 5897 5896 5896 5895 5895 5894 5894 5894 5893 5892 5892 5891 5889 5888 5887 5886 5885 5884 5883 5883 5882 5881 5881 5880 5879 5878 5877 5876
5911 5909 5908 5906 5905 5904 5903 5902 5901 5900 5899 5898 5897 5896 5896 5896 5895 5895 5894 5894 5894 5893 5893 5892 5891 5890 5889 5888 5887 5886 5884 5883 5882 5882 5881 5880 5879 5878 5877 5877 5876 5875 5873
5911 5909 5907 5906 5904 5903 5902 5901 5900 5899 5898 5897 5897 5896 5895 5895 5895 5894 5893 5893 5892 5892 5892 5891 5890 5889 5888 5886 5885 5884 5883 5883 5881 5880 5879 5878 5877 5876 5875 5874 5873 5872 5871
5910 5909 5907 5905 5904 5902 5901 5900 5899 5898 5897 5897 5896 5895 5894 5894 5894 5893 5892 5892 5891 5891 5890 5889 5888 5887 5886 5885 5884 5883 5882 5881 5879 5879 5877 5876 5875 5874 5873 5871 5870 5869 5867
5909 5908 5906 5904 5903 5901 5900 5899 5898 5897 5896 5896 5895 5894 5893 5893 5892 5892 5891 5890 5889 5889 5888 5887 5886 5885 5884 5883 5882 5881 5880 5878 5877 5876 5875 5874 5873 5871 5870 5868 5867 5865 5864
5907 5906 5905 5903 5902 5901 5899 5898 5897 5896 5895 5894 5893 5893 5892 5891 5891 5890 5889 5889 5888 5887 5886 5885 5884 5883 5882 5881 5880 5878 5877 5876 5875 5874 5873 5871 5870 5868 5867 5865 5864 5862 5861
5906 5905 5903 5902 5900 5899 5898 5897 5895 5894 5893 5893 5892 5891 5890 5889 5889 5888 5887 5887 5886 5885 5884 5884 5882 5881 5880 5879 5877 5876 5875 5873 5872 5871 5869 5868 5866 5865 5863 5862 5860 5859 5857